Regional Weather Roundup
Issued by NWS

Home | Current Version | Previous Version | Text Only | Print | Product List | Glossary On
Versions: 1 2 3 4 5 6 7 8 9 10 11 12 13 14 15 16 17 18 19 20 21 22 23 24 25 26 27 28 29 30 31 32 33 34 35 36 37 38 39 40 41 42 43 44 45 46 47 48 49 50
000
ASUS43 KMKX 202021
RWRWI

WISCONSIN REGIONAL WEATHER ROUNDUP
NATIONAL WEATHER SERVICE MILWAUKEE/SULLIVAN WI
300 PM CDT MON OCT 20 2014

NOTE: "FAIR" INDICATES FEW OR NO CLOUDS BELOW 12,000 FEET WITH NO
SIGNIFICANT WEATHER AND/OR OBSTRUCTIONS TO VISIBILITY.

WIZ001-002-006>008-014>016-023>028-202100-
NORTHWEST WISCONSIN

CITY           SKY/WX    TMP DP  RH WIND       PRES   REMARKS
SUPERIOR ARPT  CLOUDY    52  41  66 N7        30.01R
ASHLAND        CLOUDY    54  40  59 N7        29.98S
HAYWARD        CLOUDY    52  40  63 NW8       29.98S
SIREN          CLOUDY    56  39  51 N9G16     29.98F
CUMBERLAND     CLOUDY    54  37  54 N8        29.98S
RICE LAKE      CLOUDY    54  39  58 N10       29.99S
CHETEK         CLOUDY    53  40  61 N7G18     29.98R
LADYSMITH      CLOUDY    53  40  61 NW10      29.98S
EAU CLAIRE     PTSUNNY   58  39  49 N13       29.96S
MENOMONIE      PTSUNNY   59  39  47 NW12      29.97S
NEW RICHMOND   MOSUNNY   60  40  48 NW8       29.98S
OSCEOLA        MOSUNNY   59  42  53 N7G16     30.00F
$$

WIZ003>005-009-010-017-018-202100-
NORTH CENTRAL WISCONSIN

CITY           SKY/WX    TMP DP  RH WIND       PRES   REMARKS
MANITOWISH WTR DRIZZLE   45  43  91 N5        29.94S
ARBOR VITAE    CLOUDY    49  43  78 N13       29.94R
WOODRUFF       CLOUDY    49  43  78 N13       29.94R
RHINELANDER    CLOUDY    47  41  80 NW8       29.93R
EAGLE RIVER    CLOUDY    47  43  88 N12       29.92R
LAND O LAKES   LGT RAIN  46  42  86 N12       29.94R
PHILLIPS       CLOUDY    49  40  72 N7        29.95R
TOMAHAWK       CLOUDY    48  40  74 NW12G17   29.95R
MEDFORD        CLOUDY    49  39  68 N7        29.95R
MERRILL        CLOUDY    50  42  73 NW9       29.94R
$$

WIZ029-030-035-036-043>047-202100-
CENTRAL WISCONSIN

CITY           SKY/WX    TMP DP  RH WIND       PRES   REMARKS
WAUSAU         CLOUDY    51  41  68 N14G21    29.92R
MOSINEE        CLOUDY    48  43  81 NW13      29.94R
MARSHFIELD     CLOUDY    53  40  61 N13       29.94R
STEVENS POINT  CLOUDY    51  40  66 N10       29.93S
WAUPACA        CLOUDY    54  45  71 NW8       29.93R
WAUTOMA        CLOUDY    53  43  69 N6        29.93R
WISC RAPIDS    CLOUDY    56  39  53 NW15      29.94R
CAMP DOUGLAS   CLOUDY    59  43  55 N13       29.93R
$$

WIZ011>013-019>022-031-037>040-048>050-202100-
NORTHEAST WISCONSIN

CITY           SKY/WX    TMP DP  RH WIND       PRES   REMARKS
ANTIGO         CLOUDY    47  42  81 NW8       29.92R
SHAWANO        CLOUDY    53  43  68 NW9G16    29.91R
OCONTO         CLOUDY    52  42  68 NW9       29.89R
STURGEON BAY   CLOUDY    50  41  71 NW12G20   29.89R
GREEN BAY      CLOUDY    54  42  64 N10       29.90R
MANITOWOC      CLOUDY    53  45  74 N10       29.88R
APPLETON       CLOUDY    54  41  62 NW17      29.91R
CLINTONVILLE   CLOUDY    52  41  66 NW9       29.91R
OSHKOSH        CLOUDY    54  43  66 NW9G20    29.90R
$$

WIZ032>034-041-042-053>061-202100-
SOUTHWEST WISCONSIN

CITY           SKY/WX    TMP DP  RH WIND       PRES   REMARKS
LA CROSSE      MOSUNNY   67  42  40 NW10      29.92S
SPARTA         PTSUNNY   62  39  42 N10G17    29.94R
VIROQUA        MOSUNNY   62  41  46 NW13      29.93R
BOSCOBEL       SUNNY     66  41  40 NW15      29.92S
PRAIRIE DU CHI SUNNY     65  39  39 NW12G18   29.92S
PLATTEVILLE    PTSUNNY   64  42  44 NW15      29.92S
$$

WIZ056-057-062-063-064-067-068-202100-
SOUTH CENTRAL WISCONSIN

CITY           SKY/WX    TMP DP  RH WIND       PRES   REMARKS
REEDSBURG      PTSUNNY   57  41  54 N13G18    29.91S
BARABOO/DELLS  CLOUDY    57  40  52 N8        29.92R
LONE ROCK      SUNNY     66  40  38 NW12G22   29.90S
MINERAL POINT  MOSUNNY   63  37  39 NW14G20   29.91S
MADISON        CLOUDY    58  40  51 N12G21    29.91R
MIDDLETON      CLOUDY    60  40  48 N10G17    29.91R
WATERTOWN      CLOUDY    56  42  58 NW8G16    29.90R
MONROE         PTSUNNY   63  43  48 N9G16     29.90R
JANESVILLE     MOSUNNY   63  37  39 NW16G25   29.89R
$$

WIZ051-052-058>065-066-070>072-202100-
SOUTHEAST WISCONSIN

CITY           SKY/WX    TMP DP  RH WIND       PRES   REMARKS
MILWAUKEE      CLOUDY    54  45  71 NE7       29.87R
WAUKESHA       CLOUDY    54  45  71 NW13      29.90R
MILWAUKEE/TIMM CLOUDY    55  45  67 NW14G20   29.88
RACINE         CLOUDY    54  44  69 N10       29.89R
BURLINGTON     PTSUNNY   56  43  62 NW16G22   29.89R
KENOSHA        CLOUDY    56  47  71 N9        29.87R
FOND DU LAC    CLOUDY    53  43  68 NW12      29.90R
SHEBOYGAN      CLOUDY    53  43  68 NW10      29.89R
WEST BEND      CLOUDY    52  41  66 NW10      29.89R
JUNEAU         CLOUDY    53  42  67 NW10G17   29.92R
$$

LSZ147-162-202100-
LAKE SUPERIOR

STATION/POSITION TIME  TEMP    WIND        PRES    WAVE
                       AIR SEA DIR/SP/G            HT/PER
                 (UTC) (F)     (DEG/KT/KT) (MB)    (FT/S)
W MID LAKE BUOY  1950   47 46  310/  4/  4 1015.0R   1
DEVILS ISLAND    2000   48      10/  8/  9 1016.0R
PORT WING        1900   51     310/  7/ 10 1015.6R
SAXON HARBOR     1900   51     320/  7/ 10 1014.9R
$$

LMZ867-665-643>646-202100-
LAKE MICHIGAN

STATION/POSITION TIME  TEMP    WIND        PRES    WAVE
                       AIR SEA DIR/SP/G            HT/PER
                 (UTC) (F)     (DEG/KT/KT) (MB)    (FT/S)
CHAMBERS ISLAND  1900   51     310/ 16/ 19 1011.5S
N MID LAKE BUOY  1950   49 51  340/ 17/ 21 1010.8R   3/ 4
NORTHPORT PIER   1900   50     330/ 16/ 19 1011.2S
KEWAUNEE LAKESHO 2000   52     340/  7/ 11 1011.1R
SHEBOYGAN LAKESH 2000   53 51  330/ 12/ 14 1012.4R
PORT WASHINGTON  1940   55     310/  5/ 10 1012.5R
ATWATER BUOY     2000   54     320/ 12/ 16 1012.9R
MILWAUKEE LAKESH 2000   55     320/ 10/ 15   N/A
S MID LAKE BUOY  1950   53 55  330/ 17/ 19 1010.9R   2/ 4
KENOSHA   LAKESH 2000   53      10/ 17/ 19 1011.2R
$$

TC  - TEMPERATURE IN CELSIUS
VSB - VISIBILITY IN STATUTE MILES
WCI - WIND CHILL INDEX
HX  - HEAT INDEX




USA.gov is the U.S. government's official web portal to all federal, state and local government web resources and services.